Index of /20260414/WXO-DD/model_gdps/15km/12/126
Name Last modified Size Description
Parent Directory -
20260414T12Z_MSC_GDPS_AbsoluteVorticity_IsbL-0200_LatLon0.15_PT126H.grib2 2026-04-14 16:33 1.2M
20260414T12Z_MSC_GDPS_AbsoluteVorticity_IsbL-0250_LatLon0.15_PT126H.grib2 2026-04-14 16:33 1.3M
20260414T12Z_MSC_GDPS_AbsoluteVorticity_IsbL-0500_LatLon0.15_PT126H.grib2 2026-04-14 16:33 1.5M
20260414T12Z_MSC_GDPS_AbsoluteVorticity_IsbL-0700_LatLon0.15_PT126H.grib2 2026-04-14 16:33 1.3M
20260414T12Z_MSC_GDPS_AbsoluteVorticity_IsbL-0850_LatLon0.15_PT126H.grib2 2026-04-14 16:33 1.6M
20260414T12Z_MSC_GDPS_AirTemp-Max_AGL-2m_LatLon0.15_PT126H.grib2 2026-04-14 16:33 748K
20260414T12Z_MSC_GDPS_AirTemp-Min_AGL-2m_LatLon0.15_PT126H.grib2 2026-04-14 16:33 796K
20260414T12Z_MSC_GDPS_AirTemp_AGL-120m_LatLon0.15_PT126H.grib2 2026-04-14 16:33 911K
20260414T12Z_MSC_GDPS_AirTemp_AGL-2m_LatLon0.15_PT126H.grib2 2026-04-14 16:33 1.0M
20260414T12Z_MSC_GDPS_AirTemp_AGL-40m_LatLon0.15_PT126H.grib2 2026-04-14 16:33 814K
20260414T12Z_MSC_GDPS_AirTemp_AGL-80m_LatLon0.15_PT126H.grib2 2026-04-14 16:33 920K
20260414T12Z_MSC_GDPS_AirTemp_IsbL-0001_LatLon0.15_PT126H.grib2 2026-04-14 16:33 703K
20260414T12Z_MSC_GDPS_AirTemp_IsbL-0005_LatLon0.15_PT126H.grib2 2026-04-14 16:33 690K
20260414T12Z_MSC_GDPS_AirTemp_IsbL-0010_LatLon0.15_PT126H.grib2 2026-04-14 16:33 759K
20260414T12Z_MSC_GDPS_AirTemp_IsbL-0020_LatLon0.15_PT126H.grib2 2026-04-14 16:33 702K
20260414T12Z_MSC_GDPS_AirTemp_IsbL-0030_LatLon0.15_PT126H.grib2 2026-04-14 16:33 753K
20260414T12Z_MSC_GDPS_AirTemp_IsbL-0050_LatLon0.15_PT126H.grib2 2026-04-14 16:33 819K
20260414T12Z_MSC_GDPS_AirTemp_IsbL-0100_LatLon0.15_PT126H.grib2 2026-04-14 16:33 962K
20260414T12Z_MSC_GDPS_AirTemp_IsbL-0150_LatLon0.15_PT126H.grib2 2026-04-14 16:33 1.0M
20260414T12Z_MSC_GDPS_AirTemp_IsbL-0175_LatLon0.15_PT126H.grib2 2026-04-14 16:33 970K
20260414T12Z_MSC_GDPS_AirTemp_IsbL-0200_LatLon0.15_PT126H.grib2 2026-04-14 16:33 1.0M
20260414T12Z_MSC_GDPS_AirTemp_IsbL-0225_LatLon0.15_PT126H.grib2 2026-04-14 16:33 1.0M
20260414T12Z_MSC_GDPS_AirTemp_IsbL-0250_LatLon0.15_PT126H.grib2 2026-04-14 16:33 1.0M
20260414T12Z_MSC_GDPS_AirTemp_IsbL-0275_LatLon0.15_PT126H.grib2 2026-04-14 16:33 1.0M
20260414T12Z_MSC_GDPS_AirTemp_IsbL-0300_LatLon0.15_PT126H.grib2 2026-04-14 16:33 1.0M
20260414T12Z_MSC_GDPS_AirTemp_IsbL-0350_LatLon0.15_PT126H.grib2 2026-04-14 16:33 929K
20260414T12Z_MSC_GDPS_AirTemp_IsbL-0400_LatLon0.15_PT126H.grib2 2026-04-14 16:33 940K
20260414T12Z_MSC_GDPS_AirTemp_IsbL-0450_LatLon0.15_PT126H.grib2 2026-04-14 16:33 965K
20260414T12Z_MSC_GDPS_AirTemp_IsbL-0500_LatLon0.15_PT126H.grib2 2026-04-14 16:33 1.0M
20260414T12Z_MSC_GDPS_AirTemp_IsbL-0550_LatLon0.15_PT126H.grib2 2026-04-14 16:33 1.0M
20260414T12Z_MSC_GDPS_AirTemp_IsbL-0600_LatLon0.15_PT126H.grib2 2026-04-14 16:33 902K
20260414T12Z_MSC_GDPS_AirTemp_IsbL-0650_LatLon0.15_PT126H.grib2 2026-04-14 16:33 931K
20260414T12Z_MSC_GDPS_AirTemp_IsbL-0700_LatLon0.15_PT126H.grib2 2026-04-14 16:33 962K
20260414T12Z_MSC_GDPS_AirTemp_IsbL-0750_LatLon0.15_PT126H.grib2 2026-04-14 16:33 1.0M
20260414T12Z_MSC_GDPS_AirTemp_IsbL-0800_LatLon0.15_PT126H.grib2 2026-04-14 16:33 1.1M
20260414T12Z_MSC_GDPS_AirTemp_IsbL-0850_LatLon0.15_PT126H.grib2 2026-04-14 16:33 1.1M
20260414T12Z_MSC_GDPS_AirTemp_IsbL-0875_LatLon0.15_PT126H.grib2 2026-04-14 16:33 1.2M
20260414T12Z_MSC_GDPS_AirTemp_IsbL-0900_LatLon0.15_PT126H.grib2 2026-04-14 16:33 1.1M
20260414T12Z_MSC_GDPS_AirTemp_IsbL-0925_LatLon0.15_PT126H.grib2 2026-04-14 16:33 1.1M
20260414T12Z_MSC_GDPS_AirTemp_IsbL-0950_LatLon0.15_PT126H.grib2 2026-04-14 16:33 1.1M
20260414T12Z_MSC_GDPS_AirTemp_IsbL-0970_LatLon0.15_PT126H.grib2 2026-04-14 16:33 1.2M
20260414T12Z_MSC_GDPS_AirTemp_IsbL-0985_LatLon0.15_PT126H.grib2 2026-04-14 16:33 1.1M
20260414T12Z_MSC_GDPS_AirTemp_IsbL-1000_LatLon0.15_PT126H.grib2 2026-04-14 16:33 1.1M
20260414T12Z_MSC_GDPS_AirTemp_IsbL-1015_LatLon0.15_PT126H.grib2 2026-04-14 16:33 1.1M
20260414T12Z_MSC_GDPS_Albedo_Sfc_LatLon0.15_PT126H.grib2 2026-04-14 16:33 249K
20260414T12Z_MSC_GDPS_CAPE_Sfc_LatLon0.15_PT126H.grib2 2026-04-14 16:33 3.9M
20260414T12Z_MSC_GDPS_CIN_Sfc_LatLon0.15_PT126H.grib2 2026-04-14 16:33 2.9M
20260414T12Z_MSC_GDPS_CloudWater_EAtm_LatLon0.15_PT126H.grib2 2026-04-14 16:33 533K
20260414T12Z_MSC_GDPS_ConvectivePrecip-Accum_Sfc_LatLon0.15_PT126H.grib2 2026-04-14 16:33 3.5M
20260414T12Z_MSC_GDPS_DewPointDepression_AGL-2m_LatLon0.15_PT126H.grib2 2026-04-14 16:33 754K
20260414T12Z_MSC_GDPS_DewPointDepression_IsbL-0010_LatLon0.15_PT126H.grib2 2026-04-14 16:33 3.8K
20260414T12Z_MSC_GDPS_DewPointDepression_IsbL-0020_LatLon0.15_PT126H.grib2 2026-04-14 16:33 57K
20260414T12Z_MSC_GDPS_DewPointDepression_IsbL-0030_LatLon0.15_PT126H.grib2 2026-04-14 16:33 70K
20260414T12Z_MSC_GDPS_DewPointDepression_IsbL-0050_LatLon0.15_PT126H.grib2 2026-04-14 16:33 358K
20260414T12Z_MSC_GDPS_DewPointDepression_IsbL-0100_LatLon0.15_PT126H.grib2 2026-04-14 16:33 376K
20260414T12Z_MSC_GDPS_DewPointDepression_IsbL-0150_LatLon0.15_PT126H.grib2 2026-04-14 16:33 462K
20260414T12Z_MSC_GDPS_DewPointDepression_IsbL-0175_LatLon0.15_PT126H.grib2 2026-04-14 16:33 543K
20260414T12Z_MSC_GDPS_DewPointDepression_IsbL-0200_LatLon0.15_PT126H.grib2 2026-04-14 16:33 625K
20260414T12Z_MSC_GDPS_DewPointDepression_IsbL-0225_LatLon0.15_PT126H.grib2 2026-04-14 16:33 755K
20260414T12Z_MSC_GDPS_DewPointDepression_IsbL-0250_LatLon0.15_PT126H.grib2 2026-04-14 16:33 876K
20260414T12Z_MSC_GDPS_DewPointDepression_IsbL-0275_LatLon0.15_PT126H.grib2 2026-04-14 16:33 892K
20260414T12Z_MSC_GDPS_DewPointDepression_IsbL-0300_LatLon0.15_PT126H.grib2 2026-04-14 16:33 932K
20260414T12Z_MSC_GDPS_DewPointDepression_IsbL-0350_LatLon0.15_PT126H.grib2 2026-04-14 16:33 957K
20260414T12Z_MSC_GDPS_DewPointDepression_IsbL-0400_LatLon0.15_PT126H.grib2 2026-04-14 16:33 1.0M
20260414T12Z_MSC_GDPS_DewPointDepression_IsbL-0450_LatLon0.15_PT126H.grib2 2026-04-14 16:33 1.0M
20260414T12Z_MSC_GDPS_DewPointDepression_IsbL-0500_LatLon0.15_PT126H.grib2 2026-04-14 16:33 1.0M
20260414T12Z_MSC_GDPS_DewPointDepression_IsbL-0550_LatLon0.15_PT126H.grib2 2026-04-14 16:33 1.0M
20260414T12Z_MSC_GDPS_DewPointDepression_IsbL-0600_LatLon0.15_PT126H.grib2 2026-04-14 16:33 1.1M
20260414T12Z_MSC_GDPS_DewPointDepression_IsbL-0650_LatLon0.15_PT126H.grib2 2026-04-14 16:33 1.1M
20260414T12Z_MSC_GDPS_DewPointDepression_IsbL-0700_LatLon0.15_PT126H.grib2 2026-04-14 16:33 1.1M
20260414T12Z_MSC_GDPS_DewPointDepression_IsbL-0750_LatLon0.15_PT126H.grib2 2026-04-14 16:33 1.1M
20260414T12Z_MSC_GDPS_DewPointDepression_IsbL-0800_LatLon0.15_PT126H.grib2 2026-04-14 16:33 1.2M
20260414T12Z_MSC_GDPS_DewPointDepression_IsbL-0850_LatLon0.15_PT126H.grib2 2026-04-14 16:33 1.2M
20260414T12Z_MSC_GDPS_DewPointDepression_IsbL-0875_LatLon0.15_PT126H.grib2 2026-04-14 16:33 1.1M
20260414T12Z_MSC_GDPS_DewPointDepression_IsbL-0900_LatLon0.15_PT126H.grib2 2026-04-14 16:33 1.1M
20260414T12Z_MSC_GDPS_DewPointDepression_IsbL-0925_LatLon0.15_PT126H.grib2 2026-04-14 16:33 1.0M
20260414T12Z_MSC_GDPS_DewPointDepression_IsbL-0950_LatLon0.15_PT126H.grib2 2026-04-14 16:33 1.0M
20260414T12Z_MSC_GDPS_DewPointDepression_IsbL-0970_LatLon0.15_PT126H.grib2 2026-04-14 16:33 1.0M
20260414T12Z_MSC_GDPS_DewPointDepression_IsbL-0985_LatLon0.15_PT126H.grib2 2026-04-14 16:33 1.0M
20260414T12Z_MSC_GDPS_DewPointDepression_IsbL-1000_LatLon0.15_PT126H.grib2 2026-04-14 16:33 972K
20260414T12Z_MSC_GDPS_DewPointDepression_IsbL-1015_LatLon0.15_PT126H.grib2 2026-04-14 16:33 908K
20260414T12Z_MSC_GDPS_DewPoint_AGL-2m_LatLon0.15_PT126H.grib2 2026-04-14 16:33 615K
20260414T12Z_MSC_GDPS_DownwardLongwaveRadiationFlux-Accum_Sfc_LatLon0.15_PT126H.grib2 2026-04-14 16:33 811K
20260414T12Z_MSC_GDPS_DownwardShortwaveRadiationFlux-Accum_NTAtm_LatLon0.15_PT126H.grib2 2026-04-14 16:33 195K
20260414T12Z_MSC_GDPS_DownwardShortwaveRadiationFlux-Accum_Sfc_LatLon0.15_PT126H.grib2 2026-04-14 16:33 1.0M
20260414T12Z_MSC_GDPS_FreezingRain-Accum12h_Sfc_LatLon0.15_PT126H.grib2 2026-04-14 16:33 105K
20260414T12Z_MSC_GDPS_FreezingRain-Accum1h_Sfc_LatLon0.15_PT126H.grib2 2026-04-14 16:33 42K
20260414T12Z_MSC_GDPS_FreezingRain-Accum24h_Sfc_LatLon0.15_PT126H.grib2 2026-04-14 16:33 142K
20260414T12Z_MSC_GDPS_FreezingRain-Accum3h_Sfc_LatLon0.15_PT126H.grib2 2026-04-14 16:33 57K
20260414T12Z_MSC_GDPS_FreezingRain-Accum6h_Sfc_LatLon0.15_PT126H.grib2 2026-04-14 16:33 81K
20260414T12Z_MSC_GDPS_FreezingRain-Accum_Sfc_LatLon0.15_PT126H.grib2 2026-04-14 16:33 321K
20260414T12Z_MSC_GDPS_GeopotentialHeight_IsbL-0001_LatLon0.15_PT126H.grib2 2026-04-14 16:33 397K
20260414T12Z_MSC_GDPS_GeopotentialHeight_IsbL-0005_LatLon0.15_PT126H.grib2 2026-04-14 16:33 504K
20260414T12Z_MSC_GDPS_GeopotentialHeight_IsbL-0010_LatLon0.15_PT126H.grib2 2026-04-14 16:33 438K
20260414T12Z_MSC_GDPS_GeopotentialHeight_IsbL-0020_LatLon0.15_PT126H.grib2 2026-04-14 16:33 578K
20260414T12Z_MSC_GDPS_GeopotentialHeight_IsbL-0030_LatLon0.15_PT126H.grib2 2026-04-14 16:33 586K
20260414T12Z_MSC_GDPS_GeopotentialHeight_IsbL-0050_LatLon0.15_PT126H.grib2 2026-04-14 16:33 589K
20260414T12Z_MSC_GDPS_GeopotentialHeight_IsbL-0100_LatLon0.15_PT126H.grib2 2026-04-14 16:33 629K
20260414T12Z_MSC_GDPS_GeopotentialHeight_IsbL-0150_LatLon0.15_PT126H.grib2 2026-04-14 16:33 643K
20260414T12Z_MSC_GDPS_GeopotentialHeight_IsbL-0175_LatLon0.15_PT126H.grib2 2026-04-14 16:33 647K
20260414T12Z_MSC_GDPS_GeopotentialHeight_IsbL-0200_LatLon0.15_PT126H.grib2 2026-04-14 16:33 650K
20260414T12Z_MSC_GDPS_GeopotentialHeight_IsbL-0225_LatLon0.15_PT126H.grib2 2026-04-14 16:33 650K
20260414T12Z_MSC_GDPS_GeopotentialHeight_IsbL-0250_LatLon0.15_PT126H.grib2 2026-04-14 16:33 651K
20260414T12Z_MSC_GDPS_GeopotentialHeight_IsbL-0275_LatLon0.15_PT126H.grib2 2026-04-14 16:33 647K
20260414T12Z_MSC_GDPS_GeopotentialHeight_IsbL-0300_LatLon0.15_PT126H.grib2 2026-04-14 16:33 638K
20260414T12Z_MSC_GDPS_GeopotentialHeight_IsbL-0350_LatLon0.15_PT126H.grib2 2026-04-14 16:33 634K
20260414T12Z_MSC_GDPS_GeopotentialHeight_IsbL-0400_LatLon0.15_PT126H.grib2 2026-04-14 16:33 623K
20260414T12Z_MSC_GDPS_GeopotentialHeight_IsbL-0450_LatLon0.15_PT126H.grib2 2026-04-14 16:33 544K
20260414T12Z_MSC_GDPS_GeopotentialHeight_IsbL-0500_LatLon0.15_PT126H.grib2 2026-04-14 16:33 537K
20260414T12Z_MSC_GDPS_GeopotentialHeight_IsbL-0550_LatLon0.15_PT126H.grib2 2026-04-14 16:33 701K
20260414T12Z_MSC_GDPS_GeopotentialHeight_IsbL-0600_LatLon0.15_PT126H.grib2 2026-04-14 16:33 696K
20260414T12Z_MSC_GDPS_GeopotentialHeight_IsbL-0650_LatLon0.15_PT126H.grib2 2026-04-14 16:33 693K
20260414T12Z_MSC_GDPS_GeopotentialHeight_IsbL-0700_LatLon0.15_PT126H.grib2 2026-04-14 16:33 694K
20260414T12Z_MSC_GDPS_GeopotentialHeight_IsbL-0750_LatLon0.15_PT126H.grib2 2026-04-14 16:33 692K
20260414T12Z_MSC_GDPS_GeopotentialHeight_IsbL-0800_LatLon0.15_PT126H.grib2 2026-04-14 16:33 640K
20260414T12Z_MSC_GDPS_GeopotentialHeight_IsbL-0850_LatLon0.15_PT126H.grib2 2026-04-14 16:33 651K
20260414T12Z_MSC_GDPS_GeopotentialHeight_IsbL-0875_LatLon0.15_PT126H.grib2 2026-04-14 16:33 656K
20260414T12Z_MSC_GDPS_GeopotentialHeight_IsbL-0900_LatLon0.15_PT126H.grib2 2026-04-14 16:33 663K
20260414T12Z_MSC_GDPS_GeopotentialHeight_IsbL-0925_LatLon0.15_PT126H.grib2 2026-04-14 16:33 731K
20260414T12Z_MSC_GDPS_GeopotentialHeight_IsbL-0950_LatLon0.15_PT126H.grib2 2026-04-14 16:33 739K
20260414T12Z_MSC_GDPS_GeopotentialHeight_IsbL-0970_LatLon0.15_PT126H.grib2 2026-04-14 16:33 752K
20260414T12Z_MSC_GDPS_GeopotentialHeight_IsbL-0985_LatLon0.15_PT126H.grib2 2026-04-14 16:33 767K
20260414T12Z_MSC_GDPS_GeopotentialHeight_IsbL-1000_LatLon0.15_PT126H.grib2 2026-04-14 16:33 789K
20260414T12Z_MSC_GDPS_GeopotentialHeight_IsbL-1015_LatLon0.15_PT126H.grib2 2026-04-14 16:33 813K
20260414T12Z_MSC_GDPS_Humidex_Sfc_LatLon0.15_PT126H.grib2 2026-04-14 16:33 5.3M
20260414T12Z_MSC_GDPS_IcePellets-Accum12h_Sfc_LatLon0.15_PT126H.grib2 2026-04-14 16:33 58K
20260414T12Z_MSC_GDPS_IcePellets-Accum1h_Sfc_LatLon0.15_PT126H.grib2 2026-04-14 16:33 16K
20260414T12Z_MSC_GDPS_IcePellets-Accum24h_Sfc_LatLon0.15_PT126H.grib2 2026-04-14 16:33 92K
20260414T12Z_MSC_GDPS_IcePellets-Accum3h_Sfc_LatLon0.15_PT126H.grib2 2026-04-14 16:33 24K
20260414T12Z_MSC_GDPS_IcePellets-Accum6h_Sfc_LatLon0.15_PT126H.grib2 2026-04-14 16:33 41K
20260414T12Z_MSC_GDPS_IcePellets-Accum_Sfc_LatLon0.15_PT126H.grib2 2026-04-14 16:33 178K
20260414T12Z_MSC_GDPS_KIndex_Sfc_LatLon0.15_PT126H.grib2 2026-04-14 16:33 6.5M
20260414T12Z_MSC_GDPS_LatentHeatNetFlux_Sfc_LatLon0.15_PT126H.grib2 2026-04-14 16:33 664K
20260414T12Z_MSC_GDPS_LiftedIndex-MU-VT_IsbL-0500_LatLon0.15_PT126H.grib2 2026-04-14 16:33 5.4M
20260414T12Z_MSC_GDPS_NetLongwaveRadiationFlux-Accum_Sfc_LatLon0.15_PT126H.grib2 2026-04-14 16:33 1.0M
20260414T12Z_MSC_GDPS_NetShortwaveRadiationFlux-Accum_Sfc_LatLon0.15_PT126H.grib2 2026-04-14 16:33 1.0M
20260414T12Z_MSC_GDPS_O3MixingRatio_LatLon0.15_PT126H.grib2 2026-04-14 16:57 2.2M
20260414T12Z_MSC_GDPS_O3_EAtm_LatLon0.15_PT126H.grib2 2026-04-14 16:57 2.1M
20260414T12Z_MSC_GDPS_PlanetaryBoundaryLayerHeight_Sfc_LatLon0.15_PT126H.grib2 2026-04-14 16:33 2.4M
20260414T12Z_MSC_GDPS_Precip-Accum12h_Sfc_LatLon0.15_PT126H.grib2 2026-04-14 16:33 4.0M
20260414T12Z_MSC_GDPS_Precip-Accum1h_Sfc_LatLon0.15_PT126H.grib2 2026-04-14 16:33 3.2M
20260414T12Z_MSC_GDPS_Precip-Accum24h_Sfc_LatLon0.15_PT126H.grib2 2026-04-14 16:33 4.2M
20260414T12Z_MSC_GDPS_Precip-Accum3h_Sfc_LatLon0.15_PT126H.grib2 2026-04-14 16:33 3.5M
20260414T12Z_MSC_GDPS_Precip-Accum6h_Sfc_LatLon0.15_PT126H.grib2 2026-04-14 16:33 3.6M
20260414T12Z_MSC_GDPS_Precip-Accum_Sfc_LatLon0.15_PT126H.grib2 2026-04-14 16:33 5.1M
20260414T12Z_MSC_GDPS_PrecipRate_Sfc_LatLon0.15_PT126H.grib2 2026-04-14 16:33 3.0M
20260414T12Z_MSC_GDPS_PrecipType-Instant_Sfc_LatLon0.15_PT126H.grib2 2026-04-14 16:33 1.6M
20260414T12Z_MSC_GDPS_Pressure_MSL_LatLon0.15_PT126H.grib2 2026-04-14 16:33 724K
20260414T12Z_MSC_GDPS_Pressure_PVU-1.5_LatLon0.15_PT126H.grib2 2026-04-14 16:33 5.8M
20260414T12Z_MSC_GDPS_Pressure_PVU-1_LatLon0.15_PT126H.grib2 2026-04-14 16:33 6.0M
20260414T12Z_MSC_GDPS_Pressure_PVU-2_LatLon0.15_PT126H.grib2 2026-04-14 16:33 5.6M
20260414T12Z_MSC_GDPS_Pressure_Sfc_LatLon0.15_PT126H.grib2 2026-04-14 16:33 1.1M
20260414T12Z_MSC_GDPS_RadiativeTemp_Sfc_LatLon0.15_PT126H.grib2 2026-04-14 16:33 671K
20260414T12Z_MSC_GDPS_Rain-Accum12h_Sfc_LatLon0.15_PT126H.grib2 2026-04-14 16:33 2.6M
20260414T12Z_MSC_GDPS_Rain-Accum1h_Sfc_LatLon0.15_PT126H.grib2 2026-04-14 16:33 1.5M
20260414T12Z_MSC_GDPS_Rain-Accum24h_Sfc_LatLon0.15_PT126H.grib2 2026-04-14 16:33 2.9M
20260414T12Z_MSC_GDPS_Rain-Accum3h_Sfc_LatLon0.15_PT126H.grib2 2026-04-14 16:33 1.8M
20260414T12Z_MSC_GDPS_Rain-Accum6h_Sfc_LatLon0.15_PT126H.grib2 2026-04-14 16:33 2.3M
20260414T12Z_MSC_GDPS_Rain-Accum_Sfc_LatLon0.15_PT126H.grib2 2026-04-14 16:33 3.9M
20260414T12Z_MSC_GDPS_RelativeHumidity_AGL-2m_LatLon0.15_PT126H.grib2 2026-04-14 16:33 1.0M
20260414T12Z_MSC_GDPS_RelativeHumidity_IsbL-0010_LatLon0.15_PT126H.grib2 2026-04-14 16:33 248K
20260414T12Z_MSC_GDPS_RelativeHumidity_IsbL-0020_LatLon0.15_PT126H.grib2 2026-04-14 16:33 366K
20260414T12Z_MSC_GDPS_RelativeHumidity_IsbL-0030_LatLon0.15_PT126H.grib2 2026-04-14 16:33 375K
20260414T12Z_MSC_GDPS_RelativeHumidity_IsbL-0050_LatLon0.15_PT126H.grib2 2026-04-14 16:33 409K
20260414T12Z_MSC_GDPS_RelativeHumidity_IsbL-0100_LatLon0.15_PT126H.grib2 2026-04-14 16:33 481K
20260414T12Z_MSC_GDPS_RelativeHumidity_IsbL-0150_LatLon0.15_PT126H.grib2 2026-04-14 16:33 653K
20260414T12Z_MSC_GDPS_RelativeHumidity_IsbL-0175_LatLon0.15_PT126H.grib2 2026-04-14 16:33 790K
20260414T12Z_MSC_GDPS_RelativeHumidity_IsbL-0200_LatLon0.15_PT126H.grib2 2026-04-14 16:33 699K
20260414T12Z_MSC_GDPS_RelativeHumidity_IsbL-0225_LatLon0.15_PT126H.grib2 2026-04-14 16:33 790K
20260414T12Z_MSC_GDPS_RelativeHumidity_IsbL-0250_LatLon0.15_PT126H.grib2 2026-04-14 16:33 879K
20260414T12Z_MSC_GDPS_RelativeHumidity_IsbL-0275_LatLon0.15_PT126H.grib2 2026-04-14 16:33 904K
20260414T12Z_MSC_GDPS_RelativeHumidity_IsbL-0300_LatLon0.15_PT126H.grib2 2026-04-14 16:33 950K
20260414T12Z_MSC_GDPS_RelativeHumidity_IsbL-0350_LatLon0.15_PT126H.grib2 2026-04-14 16:33 967K
20260414T12Z_MSC_GDPS_RelativeHumidity_IsbL-0400_LatLon0.15_PT126H.grib2 2026-04-14 16:33 1.0M
20260414T12Z_MSC_GDPS_RelativeHumidity_IsbL-0450_LatLon0.15_PT126H.grib2 2026-04-14 16:33 1.0M
20260414T12Z_MSC_GDPS_RelativeHumidity_IsbL-0500_LatLon0.15_PT126H.grib2 2026-04-14 16:33 1.0M
20260414T12Z_MSC_GDPS_RelativeHumidity_IsbL-0550_LatLon0.15_PT126H.grib2 2026-04-14 16:33 1.0M
20260414T12Z_MSC_GDPS_RelativeHumidity_IsbL-0600_LatLon0.15_PT126H.grib2 2026-04-14 16:33 1.1M
20260414T12Z_MSC_GDPS_RelativeHumidity_IsbL-0650_LatLon0.15_PT126H.grib2 2026-04-14 16:33 1.1M
20260414T12Z_MSC_GDPS_RelativeHumidity_IsbL-0700_LatLon0.15_PT126H.grib2 2026-04-14 16:33 1.2M
20260414T12Z_MSC_GDPS_RelativeHumidity_IsbL-0750_LatLon0.15_PT126H.grib2 2026-04-14 16:33 1.2M
20260414T12Z_MSC_GDPS_RelativeHumidity_IsbL-0800_LatLon0.15_PT126H.grib2 2026-04-14 16:33 1.2M
20260414T12Z_MSC_GDPS_RelativeHumidity_IsbL-0850_LatLon0.15_PT126H.grib2 2026-04-14 16:33 1.3M
20260414T12Z_MSC_GDPS_RelativeHumidity_IsbL-0875_LatLon0.15_PT126H.grib2 2026-04-14 16:33 1.3M
20260414T12Z_MSC_GDPS_RelativeHumidity_IsbL-0900_LatLon0.15_PT126H.grib2 2026-04-14 16:33 1.2M
20260414T12Z_MSC_GDPS_RelativeHumidity_IsbL-0925_LatLon0.15_PT126H.grib2 2026-04-14 16:33 1.2M
20260414T12Z_MSC_GDPS_RelativeHumidity_IsbL-0950_LatLon0.15_PT126H.grib2 2026-04-14 16:33 1.2M
20260414T12Z_MSC_GDPS_RelativeHumidity_IsbL-0970_LatLon0.15_PT126H.grib2 2026-04-14 16:33 1.2M
20260414T12Z_MSC_GDPS_RelativeHumidity_IsbL-0985_LatLon0.15_PT126H.grib2 2026-04-14 16:33 1.1M
20260414T12Z_MSC_GDPS_RelativeHumidity_IsbL-1000_LatLon0.15_PT126H.grib2 2026-04-14 16:33 1.1M
20260414T12Z_MSC_GDPS_RelativeHumidity_IsbL-1015_LatLon0.15_PT126H.grib2 2026-04-14 16:33 1.0M
20260414T12Z_MSC_GDPS_RelativeVorticity_IsbL-0200_LatLon0.15_PT126H.grib2 2026-04-14 16:33 1.2M
20260414T12Z_MSC_GDPS_RelativeVorticity_IsbL-0250_LatLon0.15_PT126H.grib2 2026-04-14 16:33 1.3M
20260414T12Z_MSC_GDPS_RelativeVorticity_IsbL-0500_LatLon0.15_PT126H.grib2 2026-04-14 16:33 1.5M
20260414T12Z_MSC_GDPS_RelativeVorticity_IsbL-0700_LatLon0.15_PT126H.grib2 2026-04-14 16:33 1.6M
20260414T12Z_MSC_GDPS_RelativeVorticity_IsbL-0850_LatLon0.15_PT126H.grib2 2026-04-14 16:33 1.6M
20260414T12Z_MSC_GDPS_Runoff-Accum_Sfc_LatLon0.15_PT126H.grib2 2026-04-14 16:33 120K
20260414T12Z_MSC_GDPS_SensibleHeatNetFlux_Sfc_LatLon0.15_PT126H.grib2 2026-04-14 16:33 604K
20260414T12Z_MSC_GDPS_ShowalterIndex_IsbL-0500_LatLon0.15_PT126H.grib2 2026-04-14 16:33 6.2M
20260414T12Z_MSC_GDPS_Snow-Accum12h_Sfc_LatLon0.15_PT126H.grib2 2026-04-14 16:33 1.5M
20260414T12Z_MSC_GDPS_Snow-Accum1h_Sfc_LatLon0.15_PT126H.grib2 2026-04-14 16:33 1.1M
20260414T12Z_MSC_GDPS_Snow-Accum24h_Sfc_LatLon0.15_PT126H.grib2 2026-04-14 16:33 1.5M
20260414T12Z_MSC_GDPS_Snow-Accum3h_Sfc_LatLon0.15_PT126H.grib2 2026-04-14 16:33 1.1M
20260414T12Z_MSC_GDPS_Snow-Accum6h_Sfc_LatLon0.15_PT126H.grib2 2026-04-14 16:33 1.5M
20260414T12Z_MSC_GDPS_Snow-Accum_Sfc_LatLon0.15_PT126H.grib2 2026-04-14 16:33 2.1M
20260414T12Z_MSC_GDPS_SnowDensity_Sfc_LatLon0.15_PT126H.grib2 2026-04-14 16:33 271K
20260414T12Z_MSC_GDPS_SnowDepth_Sfc_LatLon0.15_PT126H.grib2 2026-04-14 16:33 1.8M
20260414T12Z_MSC_GDPS_SoilTemp_DBS-0to10cm_LatLon0.15_PT126H.grib2 2026-04-14 16:33 510K
20260414T12Z_MSC_GDPS_SoilTemp_Sfc_LatLon0.15_PT126H.grib2 2026-04-14 16:33 583K
20260414T12Z_MSC_GDPS_SoilVolumetricIceContent_Sfc_LatLon0.15_PT126H.grib2 2026-04-14 16:33 223K
20260414T12Z_MSC_GDPS_SoilVolumetricWaterContent_DBS-0to10cm_LatLon0.15_PT126H.grib2 2026-04-14 16:33 553K
20260414T12Z_MSC_GDPS_SoilVolumetricWaterContent_DBS-0to1cm_LatLon0.15_PT126H.grib2 2026-04-14 16:33 649K
20260414T12Z_MSC_GDPS_SpecificHumidity_AGL-120m_LatLon0.15_PT126H.grib2 2026-04-14 16:33 1.1M
20260414T12Z_MSC_GDPS_SpecificHumidity_AGL-2m_LatLon0.15_PT126H.grib2 2026-04-14 16:33 1.2M
20260414T12Z_MSC_GDPS_SpecificHumidity_AGL-40m_LatLon0.15_PT126H.grib2 2026-04-14 16:33 1.1M
20260414T12Z_MSC_GDPS_SpecificHumidity_AGL-80m_LatLon0.15_PT126H.grib2 2026-04-14 16:33 1.1M
20260414T12Z_MSC_GDPS_SpecificHumidity_IsbL-0001_LatLon0.15_PT126H.grib2 2026-04-14 16:33 1.1M
20260414T12Z_MSC_GDPS_SpecificHumidity_IsbL-0005_LatLon0.15_PT126H.grib2 2026-04-14 16:33 1.1M
20260414T12Z_MSC_GDPS_SpecificHumidity_IsbL-0010_LatLon0.15_PT126H.grib2 2026-04-14 16:33 1.2M
20260414T12Z_MSC_GDPS_SpecificHumidity_IsbL-0020_LatLon0.15_PT126H.grib2 2026-04-14 16:33 1.3M
20260414T12Z_MSC_GDPS_SpecificHumidity_IsbL-0030_LatLon0.15_PT126H.grib2 2026-04-14 16:33 1.5M
20260414T12Z_MSC_GDPS_SpecificHumidity_IsbL-0050_LatLon0.15_PT126H.grib2 2026-04-14 16:33 1.3M
20260414T12Z_MSC_GDPS_SpecificHumidity_IsbL-0100_LatLon0.15_PT126H.grib2 2026-04-14 16:33 1.3M
20260414T12Z_MSC_GDPS_SpecificHumidity_IsbL-0150_LatLon0.15_PT126H.grib2 2026-04-14 16:33 1.3M
20260414T12Z_MSC_GDPS_SpecificHumidity_IsbL-0175_LatLon0.15_PT126H.grib2 2026-04-14 16:33 1.3M
20260414T12Z_MSC_GDPS_SpecificHumidity_IsbL-0200_LatLon0.15_PT126H.grib2 2026-04-14 16:33 1.3M
20260414T12Z_MSC_GDPS_SpecificHumidity_IsbL-0225_LatLon0.15_PT126H.grib2 2026-04-14 16:33 1.3M
20260414T12Z_MSC_GDPS_SpecificHumidity_IsbL-0250_LatLon0.15_PT126H.grib2 2026-04-14 16:33 1.5M
20260414T12Z_MSC_GDPS_SpecificHumidity_IsbL-0275_LatLon0.15_PT126H.grib2 2026-04-14 16:33 1.3M
20260414T12Z_MSC_GDPS_SpecificHumidity_IsbL-0300_LatLon0.15_PT126H.grib2 2026-04-14 16:33 1.3M
20260414T12Z_MSC_GDPS_SpecificHumidity_IsbL-0350_LatLon0.15_PT126H.grib2 2026-04-14 16:33 1.2M
20260414T12Z_MSC_GDPS_SpecificHumidity_IsbL-0400_LatLon0.15_PT126H.grib2 2026-04-14 16:33 1.5M
20260414T12Z_MSC_GDPS_SpecificHumidity_IsbL-0450_LatLon0.15_PT126H.grib2 2026-04-14 16:33 1.3M
20260414T12Z_MSC_GDPS_SpecificHumidity_IsbL-0500_LatLon0.15_PT126H.grib2 2026-04-14 16:33 1.4M
20260414T12Z_MSC_GDPS_SpecificHumidity_IsbL-0550_LatLon0.15_PT126H.grib2 2026-04-14 16:33 1.6M
20260414T12Z_MSC_GDPS_SpecificHumidity_IsbL-0600_LatLon0.15_PT126H.grib2 2026-04-14 16:33 1.4M
20260414T12Z_MSC_GDPS_SpecificHumidity_IsbL-0650_LatLon0.15_PT126H.grib2 2026-04-14 16:33 1.5M
20260414T12Z_MSC_GDPS_SpecificHumidity_IsbL-0700_LatLon0.15_PT126H.grib2 2026-04-14 16:33 1.6M
20260414T12Z_MSC_GDPS_SpecificHumidity_IsbL-0750_LatLon0.15_PT126H.grib2 2026-04-14 16:33 1.7M
20260414T12Z_MSC_GDPS_SpecificHumidity_IsbL-0800_LatLon0.15_PT126H.grib2 2026-04-14 16:33 1.8M
20260414T12Z_MSC_GDPS_SpecificHumidity_IsbL-0850_LatLon0.15_PT126H.grib2 2026-04-14 16:33 1.9M
20260414T12Z_MSC_GDPS_SpecificHumidity_IsbL-0875_LatLon0.15_PT126H.grib2 2026-04-14 16:33 1.9M
20260414T12Z_MSC_GDPS_SpecificHumidity_IsbL-0900_LatLon0.15_PT126H.grib2 2026-04-14 16:33 1.9M
20260414T12Z_MSC_GDPS_SpecificHumidity_IsbL-0925_LatLon0.15_PT126H.grib2 2026-04-14 16:33 1.6M
20260414T12Z_MSC_GDPS_SpecificHumidity_IsbL-0950_LatLon0.15_PT126H.grib2 2026-04-14 16:33 1.5M
20260414T12Z_MSC_GDPS_SpecificHumidity_IsbL-0970_LatLon0.15_PT126H.grib2 2026-04-14 16:33 1.5M
20260414T12Z_MSC_GDPS_SpecificHumidity_IsbL-0985_LatLon0.15_PT126H.grib2 2026-04-14 16:33 1.5M
20260414T12Z_MSC_GDPS_SpecificHumidity_IsbL-1000_LatLon0.15_PT126H.grib2 2026-04-14 16:33 1.5M
20260414T12Z_MSC_GDPS_SpecificHumidity_IsbL-1015_LatLon0.15_PT126H.grib2 2026-04-14 16:33 1.4M
20260414T12Z_MSC_GDPS_SpecificHumidity_Sfc_LatLon0.15_PT126H.grib2 2026-04-14 16:33 665K
20260414T12Z_MSC_GDPS_Thickness_IsbL-0850to0700_LatLon0.15_PT126H.grib2 2026-04-14 16:33 469K
20260414T12Z_MSC_GDPS_Thickness_IsbL-1000to0500_LatLon0.15_PT126H.grib2 2026-04-14 16:33 376K
20260414T12Z_MSC_GDPS_Thickness_IsbL-1000to0850_LatLon0.15_PT126H.grib2 2026-04-14 16:33 491K
20260414T12Z_MSC_GDPS_TotalCloudCover_Sfc_LatLon0.15_PT126H.grib2 2026-04-14 16:33 820K
20260414T12Z_MSC_GDPS_TotalTotalsIndex_Sfc_LatLon0.15_PT126H.grib2 2026-04-14 16:33 6.2M
20260414T12Z_MSC_GDPS_UVIndex-ClearSky-Max24h_Sfc_LatLon0.15_PT126H.grib2 2026-04-14 16:57 2.2M
20260414T12Z_MSC_GDPS_UVIndex-ClearSky_Sfc_LatLon0.15_PT126H.grib2 2026-04-14 16:57 1.0M
20260414T12Z_MSC_GDPS_UVIndex-Max24h_Sfc_LatLon0.15_PT126H.grib2 2026-04-14 16:57 3.2M
20260414T12Z_MSC_GDPS_UVIndex_Sfc_LatLon0.15_PT126H.grib2 2026-04-14 16:57 1.5M
20260414T12Z_MSC_GDPS_UpwardLongwaveRadiationFlux_NTAtm_LatLon0.15_PT126H.grib2 2026-04-14 16:33 844K
20260414T12Z_MSC_GDPS_VerticalVelocity_IsbL-0200_LatLon0.15_PT126H.grib2 2026-04-14 16:33 1.2M
20260414T12Z_MSC_GDPS_VerticalVelocity_IsbL-0250_LatLon0.15_PT126H.grib2 2026-04-14 16:33 1.1M
20260414T12Z_MSC_GDPS_VerticalVelocity_IsbL-0500_LatLon0.15_PT126H.grib2 2026-04-14 16:33 1.0M
20260414T12Z_MSC_GDPS_VerticalVelocity_IsbL-0600_LatLon0.15_PT126H.grib2 2026-04-14 16:33 1.1M
20260414T12Z_MSC_GDPS_VerticalVelocity_IsbL-0700_LatLon0.15_PT126H.grib2 2026-04-14 16:33 1.1M
20260414T12Z_MSC_GDPS_VerticalVelocity_IsbL-0850_LatLon0.15_PT126H.grib2 2026-04-14 16:33 1.3M
20260414T12Z_MSC_GDPS_WindChill_Sfc_LatLon0.15_PT126H.grib2 2026-04-14 16:33 5.3M
20260414T12Z_MSC_GDPS_WindDir_AGL-10m_LatLon0.15_PT126H.grib2 2026-04-14 16:33 1.4M
20260414T12Z_MSC_GDPS_WindDir_AGL-120m_LatLon0.15_PT126H.grib2 2026-04-14 16:33 1.4M
20260414T12Z_MSC_GDPS_WindDir_AGL-40m_LatLon0.15_PT126H.grib2 2026-04-14 16:33 1.4M
20260414T12Z_MSC_GDPS_WindDir_AGL-80m_LatLon0.15_PT126H.grib2 2026-04-14 16:33 1.4M
20260414T12Z_MSC_GDPS_WindDir_IsbL-0001_LatLon0.15_PT126H.grib2 2026-04-14 16:33 638K
20260414T12Z_MSC_GDPS_WindDir_IsbL-0005_LatLon0.15_PT126H.grib2 2026-04-14 16:33 802K
20260414T12Z_MSC_GDPS_WindDir_IsbL-0010_LatLon0.15_PT126H.grib2 2026-04-14 16:33 860K
20260414T12Z_MSC_GDPS_WindDir_IsbL-0020_LatLon0.15_PT126H.grib2 2026-04-14 16:33 923K
20260414T12Z_MSC_GDPS_WindDir_IsbL-0030_LatLon0.15_PT126H.grib2 2026-04-14 16:33 888K
20260414T12Z_MSC_GDPS_WindDir_IsbL-0050_LatLon0.15_PT126H.grib2 2026-04-14 16:33 951K
20260414T12Z_MSC_GDPS_WindDir_IsbL-0100_LatLon0.15_PT126H.grib2 2026-04-14 16:33 1.0M
20260414T12Z_MSC_GDPS_WindDir_IsbL-0150_LatLon0.15_PT126H.grib2 2026-04-14 16:33 1.0M
20260414T12Z_MSC_GDPS_WindDir_IsbL-0175_LatLon0.15_PT126H.grib2 2026-04-14 16:33 1.0M
20260414T12Z_MSC_GDPS_WindDir_IsbL-0200_LatLon0.15_PT126H.grib2 2026-04-14 16:33 1.1M
20260414T12Z_MSC_GDPS_WindDir_IsbL-0225_LatLon0.15_PT126H.grib2 2026-04-14 16:33 1.1M
20260414T12Z_MSC_GDPS_WindDir_IsbL-0250_LatLon0.15_PT126H.grib2 2026-04-14 16:33 1.1M
20260414T12Z_MSC_GDPS_WindDir_IsbL-0275_LatLon0.15_PT126H.grib2 2026-04-14 16:33 1.2M
20260414T12Z_MSC_GDPS_WindDir_IsbL-0300_LatLon0.15_PT126H.grib2 2026-04-14 16:33 1.2M
20260414T12Z_MSC_GDPS_WindDir_IsbL-0350_LatLon0.15_PT126H.grib2 2026-04-14 16:33 1.2M
20260414T12Z_MSC_GDPS_WindDir_IsbL-0400_LatLon0.15_PT126H.grib2 2026-04-14 16:33 1.2M
20260414T12Z_MSC_GDPS_WindDir_IsbL-0450_LatLon0.15_PT126H.grib2 2026-04-14 16:33 1.3M
20260414T12Z_MSC_GDPS_WindDir_IsbL-0500_LatLon0.15_PT126H.grib2 2026-04-14 16:33 1.3M
20260414T12Z_MSC_GDPS_WindDir_IsbL-0550_LatLon0.15_PT126H.grib2 2026-04-14 16:33 1.4M
20260414T12Z_MSC_GDPS_WindDir_IsbL-0600_LatLon0.15_PT126H.grib2 2026-04-14 16:33 1.4M
20260414T12Z_MSC_GDPS_WindDir_IsbL-0650_LatLon0.15_PT126H.grib2 2026-04-14 16:33 1.5M
20260414T12Z_MSC_GDPS_WindDir_IsbL-0700_LatLon0.15_PT126H.grib2 2026-04-14 16:33 1.6M
20260414T12Z_MSC_GDPS_WindDir_IsbL-0750_LatLon0.15_PT126H.grib2 2026-04-14 16:33 1.7M
20260414T12Z_MSC_GDPS_WindDir_IsbL-0800_LatLon0.15_PT126H.grib2 2026-04-14 16:33 1.8M
20260414T12Z_MSC_GDPS_WindDir_IsbL-0850_LatLon0.15_PT126H.grib2 2026-04-14 16:33 2.0M
20260414T12Z_MSC_GDPS_WindDir_IsbL-0875_LatLon0.15_PT126H.grib2 2026-04-14 16:33 2.0M
20260414T12Z_MSC_GDPS_WindDir_IsbL-0900_LatLon0.15_PT126H.grib2 2026-04-14 16:33 2.0M
20260414T12Z_MSC_GDPS_WindDir_IsbL-0925_LatLon0.15_PT126H.grib2 2026-04-14 16:33 2.0M
20260414T12Z_MSC_GDPS_WindDir_IsbL-0950_LatLon0.15_PT126H.grib2 2026-04-14 16:33 2.0M
20260414T12Z_MSC_GDPS_WindDir_IsbL-0970_LatLon0.15_PT126H.grib2 2026-04-14 16:33 2.0M
20260414T12Z_MSC_GDPS_WindDir_IsbL-0985_LatLon0.15_PT126H.grib2 2026-04-14 16:33 2.1M
20260414T12Z_MSC_GDPS_WindDir_IsbL-1000_LatLon0.15_PT126H.grib2 2026-04-14 16:33 2.1M
20260414T12Z_MSC_GDPS_WindDir_IsbL-1015_LatLon0.15_PT126H.grib2 2026-04-14 16:33 2.1M
20260414T12Z_MSC_GDPS_WindGust-Max_AGL-10m_LatLon0.15_PT126H.grib2 2026-04-14 16:33 2.3M
20260414T12Z_MSC_GDPS_WindGust-Min_AGL-10m_LatLon0.15_PT126H.grib2 2026-04-14 16:33 2.2M
20260414T12Z_MSC_GDPS_WindGust_AGL-10m_LatLon0.15_PT126H.grib2 2026-04-14 16:33 2.2M
20260414T12Z_MSC_GDPS_WindSpeed_AGL-10m_LatLon0.15_PT126H.grib2 2026-04-14 16:33 1.1M
20260414T12Z_MSC_GDPS_WindSpeed_AGL-120m_LatLon0.15_PT126H.grib2 2026-04-14 16:33 1.2M
20260414T12Z_MSC_GDPS_WindSpeed_AGL-40m_LatLon0.15_PT126H.grib2 2026-04-14 16:33 1.2M
20260414T12Z_MSC_GDPS_WindSpeed_AGL-80m_LatLon0.15_PT126H.grib2 2026-04-14 16:33 1.2M
20260414T12Z_MSC_GDPS_WindSpeed_IsbL-0001_LatLon0.15_PT126H.grib2 2026-04-14 16:33 633K
20260414T12Z_MSC_GDPS_WindSpeed_IsbL-0005_LatLon0.15_PT126H.grib2 2026-04-14 16:33 690K
20260414T12Z_MSC_GDPS_WindSpeed_IsbL-0010_LatLon0.15_PT126H.grib2 2026-04-14 16:33 625K
20260414T12Z_MSC_GDPS_WindSpeed_IsbL-0020_LatLon0.15_PT126H.grib2 2026-04-14 16:33 665K
20260414T12Z_MSC_GDPS_WindSpeed_IsbL-0030_LatLon0.15_PT126H.grib2 2026-04-14 16:33 855K
20260414T12Z_MSC_GDPS_WindSpeed_IsbL-0050_LatLon0.15_PT126H.grib2 2026-04-14 16:33 914K
20260414T12Z_MSC_GDPS_WindSpeed_IsbL-0100_LatLon0.15_PT126H.grib2 2026-04-14 16:33 1.1M
20260414T12Z_MSC_GDPS_WindSpeed_IsbL-0150_LatLon0.15_PT126H.grib2 2026-04-14 16:33 1.0M
20260414T12Z_MSC_GDPS_WindSpeed_IsbL-0175_LatLon0.15_PT126H.grib2 2026-04-14 16:33 1.0M
20260414T12Z_MSC_GDPS_WindSpeed_IsbL-0200_LatLon0.15_PT126H.grib2 2026-04-14 16:33 1.1M
20260414T12Z_MSC_GDPS_WindSpeed_IsbL-0225_LatLon0.15_PT126H.grib2 2026-04-14 16:33 1.1M
20260414T12Z_MSC_GDPS_WindSpeed_IsbL-0250_LatLon0.15_PT126H.grib2 2026-04-14 16:33 1.1M
20260414T12Z_MSC_GDPS_WindSpeed_IsbL-0275_LatLon0.15_PT126H.grib2 2026-04-14 16:33 1.1M
20260414T12Z_MSC_GDPS_WindSpeed_IsbL-0300_LatLon0.15_PT126H.grib2 2026-04-14 16:33 1.1M
20260414T12Z_MSC_GDPS_WindSpeed_IsbL-0350_LatLon0.15_PT126H.grib2 2026-04-14 16:33 1.1M
20260414T12Z_MSC_GDPS_WindSpeed_IsbL-0400_LatLon0.15_PT126H.grib2 2026-04-14 16:33 1.1M
20260414T12Z_MSC_GDPS_WindSpeed_IsbL-0450_LatLon0.15_PT126H.grib2 2026-04-14 16:33 1.1M
20260414T12Z_MSC_GDPS_WindSpeed_IsbL-0500_LatLon0.15_PT126H.grib2 2026-04-14 16:33 1.1M
20260414T12Z_MSC_GDPS_WindSpeed_IsbL-0550_LatLon0.15_PT126H.grib2 2026-04-14 16:33 1.1M
20260414T12Z_MSC_GDPS_WindSpeed_IsbL-0600_LatLon0.15_PT126H.grib2 2026-04-14 16:33 1.1M
20260414T12Z_MSC_GDPS_WindSpeed_IsbL-0650_LatLon0.15_PT126H.grib2 2026-04-14 16:33 1.4M
20260414T12Z_MSC_GDPS_WindSpeed_IsbL-0700_LatLon0.15_PT126H.grib2 2026-04-14 16:33 1.5M
20260414T12Z_MSC_GDPS_WindSpeed_IsbL-0750_LatLon0.15_PT126H.grib2 2026-04-14 16:33 1.5M
20260414T12Z_MSC_GDPS_WindSpeed_IsbL-0800_LatLon0.15_PT126H.grib2 2026-04-14 16:33 1.7M
20260414T12Z_MSC_GDPS_WindSpeed_IsbL-0850_LatLon0.15_PT126H.grib2 2026-04-14 16:33 1.8M
20260414T12Z_MSC_GDPS_WindSpeed_IsbL-0875_LatLon0.15_PT126H.grib2 2026-04-14 16:33 1.9M
20260414T12Z_MSC_GDPS_WindSpeed_IsbL-0900_LatLon0.15_PT126H.grib2 2026-04-14 16:33 1.9M
20260414T12Z_MSC_GDPS_WindSpeed_IsbL-0925_LatLon0.15_PT126H.grib2 2026-04-14 16:33 1.9M
20260414T12Z_MSC_GDPS_WindSpeed_IsbL-0950_LatLon0.15_PT126H.grib2 2026-04-14 16:33 1.9M
20260414T12Z_MSC_GDPS_WindSpeed_IsbL-0970_LatLon0.15_PT126H.grib2 2026-04-14 16:33 1.8M
20260414T12Z_MSC_GDPS_WindSpeed_IsbL-0985_LatLon0.15_PT126H.grib2 2026-04-14 16:33 1.8M
20260414T12Z_MSC_GDPS_WindSpeed_IsbL-1000_LatLon0.15_PT126H.grib2 2026-04-14 16:33 1.8M
20260414T12Z_MSC_GDPS_WindSpeed_IsbL-1015_LatLon0.15_PT126H.grib2 2026-04-14 16:33 1.8M
20260414T12Z_MSC_GDPS_WindU_AGL-10m_LatLon0.15_PT126H.grib2 2026-04-14 16:33 1.3M
20260414T12Z_MSC_GDPS_WindU_AGL-120m_LatLon0.15_PT126H.grib2 2026-04-14 16:33 1.0M
20260414T12Z_MSC_GDPS_WindU_AGL-40m_LatLon0.15_PT126H.grib2 2026-04-14 16:33 969K
20260414T12Z_MSC_GDPS_WindU_AGL-80m_LatLon0.15_PT126H.grib2 2026-04-14 16:33 1.0M
20260414T12Z_MSC_GDPS_WindU_IsbL-0001_LatLon0.15_PT126H.grib2 2026-04-14 16:33 634K
20260414T12Z_MSC_GDPS_WindU_IsbL-0005_LatLon0.15_PT126H.grib2 2026-04-14 16:33 690K
20260414T12Z_MSC_GDPS_WindU_IsbL-0010_LatLon0.15_PT126H.grib2 2026-04-14 16:33 699K
20260414T12Z_MSC_GDPS_WindU_IsbL-0020_LatLon0.15_PT126H.grib2 2026-04-14 16:33 734K
20260414T12Z_MSC_GDPS_WindU_IsbL-0030_LatLon0.15_PT126H.grib2 2026-04-14 16:33 735K
20260414T12Z_MSC_GDPS_WindU_IsbL-0050_LatLon0.15_PT126H.grib2 2026-04-14 16:33 704K
20260414T12Z_MSC_GDPS_WindU_IsbL-0100_LatLon0.15_PT126H.grib2 2026-04-14 16:33 868K
20260414T12Z_MSC_GDPS_WindU_IsbL-0150_LatLon0.15_PT126H.grib2 2026-04-14 16:33 1.0M
20260414T12Z_MSC_GDPS_WindU_IsbL-0175_LatLon0.15_PT126H.grib2 2026-04-14 16:33 1.0M
20260414T12Z_MSC_GDPS_WindU_IsbL-0200_LatLon0.15_PT126H.grib2 2026-04-14 16:33 1.1M
20260414T12Z_MSC_GDPS_WindU_IsbL-0225_LatLon0.15_PT126H.grib2 2026-04-14 16:33 860K
20260414T12Z_MSC_GDPS_WindU_IsbL-0250_LatLon0.15_PT126H.grib2 2026-04-14 16:33 857K
20260414T12Z_MSC_GDPS_WindU_IsbL-0275_LatLon0.15_PT126H.grib2 2026-04-14 16:33 885K
20260414T12Z_MSC_GDPS_WindU_IsbL-0300_LatLon0.15_PT126H.grib2 2026-04-14 16:33 873K
20260414T12Z_MSC_GDPS_WindU_IsbL-0350_LatLon0.15_PT126H.grib2 2026-04-14 16:33 888K
20260414T12Z_MSC_GDPS_WindU_IsbL-0400_LatLon0.15_PT126H.grib2 2026-04-14 16:33 887K
20260414T12Z_MSC_GDPS_WindU_IsbL-0450_LatLon0.15_PT126H.grib2 2026-04-14 16:33 889K
20260414T12Z_MSC_GDPS_WindU_IsbL-0500_LatLon0.15_PT126H.grib2 2026-04-14 16:33 1.1M
20260414T12Z_MSC_GDPS_WindU_IsbL-0550_LatLon0.15_PT126H.grib2 2026-04-14 16:33 1.1M
20260414T12Z_MSC_GDPS_WindU_IsbL-0600_LatLon0.15_PT126H.grib2 2026-04-14 16:33 1.1M
20260414T12Z_MSC_GDPS_WindU_IsbL-0650_LatLon0.15_PT126H.grib2 2026-04-14 16:33 1.2M
20260414T12Z_MSC_GDPS_WindU_IsbL-0700_LatLon0.15_PT126H.grib2 2026-04-14 16:33 1.2M
20260414T12Z_MSC_GDPS_WindU_IsbL-0750_LatLon0.15_PT126H.grib2 2026-04-14 16:33 1.3M
20260414T12Z_MSC_GDPS_WindU_IsbL-0800_LatLon0.15_PT126H.grib2 2026-04-14 16:33 1.3M
20260414T12Z_MSC_GDPS_WindU_IsbL-0850_LatLon0.15_PT126H.grib2 2026-04-14 16:33 1.4M
20260414T12Z_MSC_GDPS_WindU_IsbL-0875_LatLon0.15_PT126H.grib2 2026-04-14 16:33 1.4M
20260414T12Z_MSC_GDPS_WindU_IsbL-0900_LatLon0.15_PT126H.grib2 2026-04-14 16:33 1.5M
20260414T12Z_MSC_GDPS_WindU_IsbL-0925_LatLon0.15_PT126H.grib2 2026-04-14 16:33 1.5M
20260414T12Z_MSC_GDPS_WindU_IsbL-0950_LatLon0.15_PT126H.grib2 2026-04-14 16:33 1.4M
20260414T12Z_MSC_GDPS_WindU_IsbL-0970_LatLon0.15_PT126H.grib2 2026-04-14 16:33 1.4M
20260414T12Z_MSC_GDPS_WindU_IsbL-0985_LatLon0.15_PT126H.grib2 2026-04-14 16:33 1.4M
20260414T12Z_MSC_GDPS_WindU_IsbL-1000_LatLon0.15_PT126H.grib2 2026-04-14 16:33 1.4M
20260414T12Z_MSC_GDPS_WindU_IsbL-1015_LatLon0.15_PT126H.grib2 2026-04-14 16:33 1.3M
20260414T12Z_MSC_GDPS_WindV_AGL-10m_LatLon0.15_PT126H.grib2 2026-04-14 16:33 1.6M
20260414T12Z_MSC_GDPS_WindV_AGL-120m_LatLon0.15_PT126H.grib2 2026-04-14 16:33 1.0M
20260414T12Z_MSC_GDPS_WindV_AGL-40m_LatLon0.15_PT126H.grib2 2026-04-14 16:33 1.2M
20260414T12Z_MSC_GDPS_WindV_AGL-80m_LatLon0.15_PT126H.grib2 2026-04-14 16:33 1.0M
20260414T12Z_MSC_GDPS_WindV_IsbL-0001_LatLon0.15_PT126H.grib2 2026-04-14 16:33 759K
20260414T12Z_MSC_GDPS_WindV_IsbL-0005_LatLon0.15_PT126H.grib2 2026-04-14 16:33 778K
20260414T12Z_MSC_GDPS_WindV_IsbL-0010_LatLon0.15_PT126H.grib2 2026-04-14 16:33 803K
20260414T12Z_MSC_GDPS_WindV_IsbL-0020_LatLon0.15_PT126H.grib2 2026-04-14 16:33 851K
20260414T12Z_MSC_GDPS_WindV_IsbL-0030_LatLon0.15_PT126H.grib2 2026-04-14 16:33 851K
20260414T12Z_MSC_GDPS_WindV_IsbL-0050_LatLon0.15_PT126H.grib2 2026-04-14 16:33 906K
20260414T12Z_MSC_GDPS_WindV_IsbL-0100_LatLon0.15_PT126H.grib2 2026-04-14 16:33 856K
20260414T12Z_MSC_GDPS_WindV_IsbL-0150_LatLon0.15_PT126H.grib2 2026-04-14 16:33 1.0M
20260414T12Z_MSC_GDPS_WindV_IsbL-0175_LatLon0.15_PT126H.grib2 2026-04-14 16:33 1.0M
20260414T12Z_MSC_GDPS_WindV_IsbL-0200_LatLon0.15_PT126H.grib2 2026-04-14 16:33 846K
20260414T12Z_MSC_GDPS_WindV_IsbL-0225_LatLon0.15_PT126H.grib2 2026-04-14 16:33 854K
20260414T12Z_MSC_GDPS_WindV_IsbL-0250_LatLon0.15_PT126H.grib2 2026-04-14 16:33 912K
20260414T12Z_MSC_GDPS_WindV_IsbL-0275_LatLon0.15_PT126H.grib2 2026-04-14 16:33 938K
20260414T12Z_MSC_GDPS_WindV_IsbL-0300_LatLon0.15_PT126H.grib2 2026-04-14 16:33 927K
20260414T12Z_MSC_GDPS_WindV_IsbL-0350_LatLon0.15_PT126H.grib2 2026-04-14 16:33 937K
20260414T12Z_MSC_GDPS_WindV_IsbL-0400_LatLon0.15_PT126H.grib2 2026-04-14 16:33 937K
20260414T12Z_MSC_GDPS_WindV_IsbL-0450_LatLon0.15_PT126H.grib2 2026-04-14 16:33 880K
20260414T12Z_MSC_GDPS_WindV_IsbL-0500_LatLon0.15_PT126H.grib2 2026-04-14 16:33 885K
20260414T12Z_MSC_GDPS_WindV_IsbL-0550_LatLon0.15_PT126H.grib2 2026-04-14 16:33 1.1M
20260414T12Z_MSC_GDPS_WindV_IsbL-0600_LatLon0.15_PT126H.grib2 2026-04-14 16:33 1.1M
20260414T12Z_MSC_GDPS_WindV_IsbL-0650_LatLon0.15_PT126H.grib2 2026-04-14 16:33 1.2M
20260414T12Z_MSC_GDPS_WindV_IsbL-0700_LatLon0.15_PT126H.grib2 2026-04-14 16:33 1.2M
20260414T12Z_MSC_GDPS_WindV_IsbL-0750_LatLon0.15_PT126H.grib2 2026-04-14 16:33 1.3M
20260414T12Z_MSC_GDPS_WindV_IsbL-0800_LatLon0.15_PT126H.grib2 2026-04-14 16:33 1.3M
20260414T12Z_MSC_GDPS_WindV_IsbL-0850_LatLon0.15_PT126H.grib2 2026-04-14 16:33 1.4M
20260414T12Z_MSC_GDPS_WindV_IsbL-0875_LatLon0.15_PT126H.grib2 2026-04-14 16:33 1.4M
20260414T12Z_MSC_GDPS_WindV_IsbL-0900_LatLon0.15_PT126H.grib2 2026-04-14 16:33 1.5M
20260414T12Z_MSC_GDPS_WindV_IsbL-0925_LatLon0.15_PT126H.grib2 2026-04-14 16:33 1.4M
20260414T12Z_MSC_GDPS_WindV_IsbL-0950_LatLon0.15_PT126H.grib2 2026-04-14 16:33 1.4M
20260414T12Z_MSC_GDPS_WindV_IsbL-0970_LatLon0.15_PT126H.grib2 2026-04-14 16:33 1.4M
20260414T12Z_MSC_GDPS_WindV_IsbL-0985_LatLon0.15_PT126H.grib2 2026-04-14 16:33 1.4M
20260414T12Z_MSC_GDPS_WindV_IsbL-1000_LatLon0.15_PT126H.grib2 2026-04-14 16:33 1.7M
20260414T12Z_MSC_GDPS_WindV_IsbL-1015_LatLon0.15_PT126H.grib2 2026-04-14 16:33 1.6M